Le nostre stazioni meteo in Italia

Pubblicità
Il mio iltempo24.it
Firenze/Peretola, Italia (16170): Temperatura & dewpoint: 09.09.2019 21:00:00 - 15.09.2019 21:00:00 (CEST)Firenze/Peretola, Italia (16170): velocità del vento: 09.09.2019 21:00:00 - 15.09.2019 21:00:00 (CEST)Firenze/Peretola, Italia (16170): direzione del vento: 09.09.2019 21:00:00 - 15.09.2019 21:00:00 (CEST)Firenze/Peretola, Italia (16170): reduced air pressure: 09.09.2019 21:00:00 - 15.09.2019 21:00:00 (CEST)Firenze/Peretola, Italia (16170): visibility: 09.09.2019 21:00:00 - 15.09.2019 21:00:00 (CEST)Firenze/Peretola, Italia (16170): precipitazioni: 09.09.2019 21:00:00 - 15.09.2019 21:00:00 (CEST)
Data & Tempo tt [°C] td [°C] ff [km/h] ff [kn] dd ppp [hPa] vv [km] rr [mm]
15.09.2019 21:00:00 24,0 14,0 2 1 - - 10 -
15.09.2019 20:00:00 26,0 14,0 5 3 ONO 1021,1 10 -
15.09.2019 19:00:00 28,0 13,0 4 2 - - 10 -
15.09.2019 18:00:00 30,0 13,0 13 7 OSO - 10 -
15.09.2019 17:00:00 30,3 13,2 9 5 S 1021,2 10 0,0
15.09.2019 16:00:00 32,0 13,0 9 5 SSO - 10 -
15.09.2019 15:00:00 31,0 14,0 8 4 - - 10 -
15.09.2019 14:00:00 30,1 13,8 8 4 ESE 1023,0 10 -
15.09.2019 13:00:00 29,0 14,0 5 3 - - 10 -
15.09.2019 12:00:00 27,0 14,0 5 3 S - 10 -
15.09.2019 11:00:00 25,3 13,7 8 4 SE 1024,9 10 0,0
15.09.2019 10:00:00 22,0 14,0 5 3 SSE - 10 -
15.09.2019 09:00:00 19,0 13,0 2 1 - - 10 -
15.09.2019 08:00:00 17,4 13,9 4 2 - 1024,9 10 -
15.09.2019 07:00:00 17,0 13,0 2 1 - - 10 -
15.09.2019 06:00:00 18,0 13,0 5 3 SSE - 10 -
15.09.2019 05:00:00 16,3 12,3 4 2 - 1024,5 10 0,0
15.09.2019 04:00:00 18,0 13,0 2 1 - - 10 -
15.09.2019 03:00:00 20,0 13,0 5 3 SSO - 10 -
15.09.2019 02:00:00 23,0 12,1 5 3 SSE 1025,0 10 -
15.09.2019 01:00:00 23,0 13,0 4 2 - - 10 -
15.09.2019 00:00:00 24,0 13,0 11 6 E - 10 -
14.09.2019 23:00:00 25,7 12,8 11 6 N 1025,4 10 0,0
14.09.2019 22:00:00 26,0 13,0 15 8 N - 10 -
14.09.2019 21:00:00 27,0 14,0 15 8 O - 10 -
14.09.2019 20:00:00 26,9 13,9 15 8 N 1024,5 10 -
14.09.2019 19:00:00 29,0 13,0 11 6 N - 10 -
14.09.2019 18:00:00 30,0 13,0 26 14 NNE - 10 -
14.09.2019 17:00:00 31,1 12,5 24 13 NNE 1023,9 10 0,0
14.09.2019 16:00:00 32,0 12,0 24 13 NNE - 10 -
14.09.2019 15:00:00 32,0 11,0 22 12 NNE - 10 -
14.09.2019 14:00:00 32,1 11,2 21 11 NNE 1025,7 10 -
14.09.2019 13:00:00 31,0 11,0 22 12 NNE - 10 -
14.09.2019 12:00:00 30,0 11,0 18 10 NE - 10 -
14.09.2019 11:00:00 28,7 12,1 18 10 N 1027,1 10 0,0
14.09.2019 10:00:00 27,0 11,0 13 7 N - 10 -
14.09.2019 09:00:00 23,0 14,0 4 2 - - 10 -
14.09.2019 08:00:00 18,5 12,5 8 4 SSO 1027,0 10 -
14.09.2019 07:00:00 15,0 11,0 4 2 - - 10 -
14.09.2019 06:00:00 16,0 12,0 4 2 - - 10 -
14.09.2019 05:00:00 16,1 11,6 5 3 SO 1026,3 10 0,0
14.09.2019 04:00:00 18,0 12,0 5 3 SE - 10 -
14.09.2019 03:00:00 19,0 12,0 5 3 SO - 10 -
14.09.2019 02:00:00 20,7 13,0 11 6 S 1027,3 10 -
14.09.2019 01:00:00 21,0 13,0 8 4 E - 10 -
14.09.2019 00:00:00 22,0 13,0 5 3 S - 10 -
13.09.2019 23:00:00 23,5 13,5 5 3 - 1027,6 10 0,0
13.09.2019 22:00:00 26,0 13,0 8 4 - - 10 -
13.09.2019 21:00:00 26,0 13,0 11 6 O - 10 -
13.09.2019 20:00:00 27,0 12,8 21 11 NNE 1026,3 10 -
13.09.2019 19:00:00 29,0 12,0 21 11 NNE - 10 -
13.09.2019 18:00:00 31,0 11,0 16 9 NE - 10 -
13.09.2019 17:00:00 31,7 9,6 15 8 NE 1026,0 10 0,0
13.09.2019 16:00:00 32,0 8,0 11 6 ENE - 10 -
13.09.2019 15:00:00 32,0 8,0 15 8 NE - 10 -
13.09.2019 14:00:00 31,9 8,6 15 8 NNE 1027,3 10 -
13.09.2019 13:00:00 31,0 9,0 24 13 NE - 10 -
13.09.2019 12:00:00 30,0 11,0 16 9 NNE - 10 -
13.09.2019 11:00:00 28,7 10,7 18 10 NNE 1029,1 10 0,0
13.09.2019 10:00:00 24,0 13,0 9 5 - - 10 -
13.09.2019 09:00:00 21,0 13,0 5 3 S - 10 -
13.09.2019 08:00:00 17,4 13,3 5 3 E 1028,9 10 -
13.09.2019 07:00:00 15,0 11,0 5 3 ESE - 10 -
13.09.2019 06:00:00 17,0 11,0 4 2 - - 10 -
13.09.2019 05:00:00 17,2 10,6 4 2 - 1028,3 10 0,0
13.09.2019 04:00:00 19,0 10,0 2 1 - - 10 -
13.09.2019 03:00:00 19,0 11,0 5 3 NNO - 10 -
13.09.2019 02:00:00 20,6 10,5 8 4 SSO 1028,2 10 -
13.09.2019 01:00:00 21,0 11,0 9 5 SSO - 10 -
13.09.2019 00:00:00 22,0 11,0 5 3 SE - 10 -
12.09.2019 23:00:00 21,3 11,4 9 5 ENE 1028,2 10 0,0
12.09.2019 22:00:00 22,0 11,0 5 3 ENE - 10 -
12.09.2019 21:00:00 25,0 11,0 8 4 NO - 10 -
12.09.2019 20:00:00 24,4 11,0 9 5 NNE 1027,5 10 -
12.09.2019 19:00:00 28,0 11,0 13 7 NNE - 10 -
12.09.2019 18:00:00 29,0 11,0 13 7 NNE - 10 -
12.09.2019 17:00:00 30,1 9,8 21 11 NNE 1026,6 10 0,0
12.09.2019 16:00:00 30,0 10,0 16 9 N - 10 -
12.09.2019 15:00:00 31,0 11,0 21 11 N - 10 -
12.09.2019 14:00:00 30,8 11,0 15 8 N 1026,9 10 -
12.09.2019 13:00:00 29,0 11,0 8 4 - - 10 -
12.09.2019 12:00:00 29,0 12,0 15 8 NNE - 10 -
12.09.2019 11:00:00 27,1 11,6 13 7 - 1027,3 10 0,0
12.09.2019 10:00:00 24,0 14,0 5 3 S - 10 -
12.09.2019 09:00:00 19,0 14,0 5 3 SE - 10 -
12.09.2019 08:00:00 15,7 13,1 4 2 - 1026,1 10 -
12.09.2019 07:00:00 14,0 12,0 5 3 - - 10 -
12.09.2019 06:00:00 14,0 12,0 4 2 - - 10 -
12.09.2019 05:00:00 15,7 12,6 4 2 - 1024,1 10 0,0
12.09.2019 04:00:00 13,0 11,0 4 2 - - 10 -
12.09.2019 03:00:00 17,0 13,0 4 2 - - 10 -
12.09.2019 02:00:00 15,5 12,0 2 1 - 1023,7 10 -
12.09.2019 01:00:00 18,0 12,0 2 1 - - 10 -
12.09.2019 00:00:00 19,0 12,0 2 1 - - 10 -
11.09.2019 23:00:00 21,0 12,1 5 3 - 1022,5 10 0,0
11.09.2019 22:00:00 21,0 12,0 5 3 SSE - 10 -
11.09.2019 21:00:00 24,0 12,0 4 2 - - 10 -
11.09.2019 20:00:00 24,2 11,6 4 2 - 1020,6 10 -
11.09.2019 19:00:00 27,0 12,0 13 7 N - 10 -
11.09.2019 18:00:00 29,0 12,0 16 9 N - 10 -
11.09.2019 17:00:00 29,5 12,4 18 10 NNE 1019,1 10 0,0
11.09.2019 16:00:00 29,0 10,0 13 7 NNE - 10 -
11.09.2019 15:00:00 30,0 9,0 11 6 N - 10 -
11.09.2019 14:00:00 29,2 8,9 9 5 - 1019,1 10 -
11.09.2019 13:00:00 29,0 9,0 15 8 N - 10 -
11.09.2019 12:00:00 28,0 9,0 16 9 NNE - 10 -
11.09.2019 11:00:00 26,4 9,9 16 9 ENE 1020,0 10 0,0
11.09.2019 10:00:00 25,0 11,0 9 5 - - 10 -
11.09.2019 09:00:00 23,0 13,0 11 6 SSO - 10 -
11.09.2019 08:00:00 20,6 13,7 8 4 SO 1018,8 10 -
11.09.2019 07:00:00 18,0 14,0 11 6 SSO - 10 -
11.09.2019 06:00:00 19,0 13,0 9 5 SSO - 10 -
11.09.2019 05:00:00 18,9 13,3 8 4 SSE 1017,8 10 0,0
11.09.2019 04:00:00 21,0 14,0 11 6 ENE - 10 -
11.09.2019 03:00:00 22,0 13,0 5 3 S - 10 -
11.09.2019 02:00:00 22,2 13,3 9 5 - 1017,0 10 -
11.09.2019 01:00:00 22,0 15,0 11 6 - - 10 -
11.09.2019 00:00:00 22,0 15,0 4 2 - - 10 -
10.09.2019 23:00:00 22,3 14,9 5 3 - 1016,3 10 0,0
10.09.2019 22:00:00 23,0 15,0 18 10 NNE - 10 -
10.09.2019 21:00:00 23,0 15,0 24 13 NNE - 10 -
10.09.2019 20:00:00 23,7 14,3 18 10 NNE 1014,1 10 -
10.09.2019 19:00:00 26,0 13,0 22 12 NNE - 10 -
10.09.2019 18:00:00 27,0 13,0 15 8 NNE - 10 -
10.09.2019 17:00:00 27,5 8,5 8 4 SSE 1013,7 10 0,0
10.09.2019 16:00:00 28,0 9,0 11 6 ESE - 10 -
10.09.2019 15:00:00 28,0 10,0 11 6 SE - 10 -
10.09.2019 14:00:00 26,7 9,6 13 7 ESE 1014,6 10 -
10.09.2019 13:00:00 26,0 10,0 16 9 SE - 10 -
10.09.2019 12:00:00 24,0 12,0 4 2 - - 10 -
10.09.2019 11:00:00 21,1 12,8 8 4 O 1016,1 10 0,0
10.09.2019 10:00:00 18,0 13,0 2 1 - - 10 -
10.09.2019 09:00:00 16,0 13,0 2 1 - - 10 -
10.09.2019 08:00:00 14,2 13,4 2 1 - 1016,4 10 -
10.09.2019 07:00:00 11,0 11,0 2 1 - - 10 -
10.09.2019 06:00:00 12,0 11,0 2 1 - - 10 -
10.09.2019 05:00:00 13,4 11,4 2 1 - 1015,9 10 0,0
10.09.2019 04:00:00 13,0 11,0 5 3 ESE - 10 -
10.09.2019 03:00:00 14,0 11,0 8 4 E - 10 -
10.09.2019 02:00:00 15,0 11,0 8 4 ENE - 10 -
10.09.2019 01:00:00 16,0 12,0 8 4 E - 10 -
10.09.2019 00:00:00 16,0 11,0 8 4 E - 10 -
09.09.2019 23:00:00 16,6 11,4 2 1 - 1016,2 10 0,0
09.09.2019 22:00:00 19,0 11,0 5 3 O - 10 -
09.09.2019 21:00:00 21,0 11,0 11 6 OSO - 10 -

tt = Temperatura
td = dewpoint
ff = velocità del vento
dd = direzione del vento
ppp = reduced air pressure
vv = visibility
rr = precipitazioni

Stazioni seguenti

WeatherPro
AMSI
MeteoEarth